Overview Statistics Trail Chart Weather Telemetry Raw packets
 

This is the latest recevied weather packets stored in our database for station/object K4IR. If no packets are shown the sender has not sent any weather packets the latest 10 day(s).

<< 21 22 23 24 25 26 27 >>
Time Temp. Humidity Pressure Rain* Wind** Luminosity Snow
1788304670 27.22° C 85% 1018 hPa 0 mm - 14 W/m² -
1788304057 27.22° C 84% 1017.8 hPa 0 mm - 21 W/m² -
1788303452 27.78° C 82% 1018 hPa 0 mm - 28 W/m² -
1788302848 28.33° C 81% 1018 hPa 0 mm - 34 W/m² -
1788302246 28.89° C 80% 1017.9 hPa 0 mm - 40 W/m² -
1788301643 29.44° C 77% 1017.8 hPa 0 mm - 45 W/m² -
1788301040 30° C 76% 1018 hPa 0 mm - 84 W/m² -
1788300440 30.56° C 74% 1017.7 hPa 0 mm - 104 W/m² -
1788299839 30.56° C 73% 1017.6 hPa 0 mm - 128 W/m² -
1788299238 30.56° C 72% 1017.6 hPa 0 mm - 152 W/m² -
1788298637 31.11° C 72% 1017.4 hPa 0 mm - 186 W/m² -
1788298038 31.67° C 70% 1017.6 hPa 0 mm - 211 W/m² -
1788297434 31.11° C 71% 1017.8 hPa 0 mm - 243 W/m² -
1788296831 31.67° C 70% 1017.7 hPa 0 mm - 274 W/m² -
1788296229 31.67° C 70% 1017.6 hPa 0 mm - 305 W/m² -
1788295642 31.67° C 70% 1017.6 hPa 0 mm - 334 W/m² -
1788295020 31.11° C 70% 1017.7 hPa 0 mm - 366 W/m² -
1788294420 31.67° C 69% 1017.8 hPa 0 mm - 333 W/m² -
1788293818 31.11° C 70% 1017.7 hPa 0 mm - 418 W/m² -
1788293217 31.11° C 71% 1017.7 hPa 0 mm - 136 W/m² -
1788292615 31.11° C 70% 1017.8 hPa 0 mm - 99 W/m² -
1788292011 30.56° C 72% 1017.7 hPa 0 mm - 129 W/m² -
1788291408 31.67° C 71% 1017.9 hPa 0 mm - 200 W/m² -
1788290808 31.67° C 72% 1018 hPa 0 mm - 124 W/m² -
1788290205 32.22° C 71% 1018.2 hPa 0 mm - 148 W/m² -

* Rain latest hour (hover to see other rain measurements)
** Current wind speed in m/s (hover to see current wind gust speed)